[ hide orbit diagram ]
For accurate long-term ephemerides, please instead use our Horizons system.This orbit viewer was implemented using two-body methods, and hence should not be used for determining accurate long-term trajectories (over several years or decades) or planetary encounter circumstances.
Orbital Elements at Epoch 2459000.5 (2020-May-31.0) TDB
Reference: JPL 26 (heliocentric ecliptic J2000)
Element | Value | Uncertainty (1-sigma) | Units |
e | .2016418140587617 | 3.5504e-08 | |
a | 2.569326294318652 | 8.5301e-09 | au |
q | 2.051242679423364 | 9.2571e-08 | au |
i | 7.050882801306959 | 3.5228e-06 | deg |
node | 325.1863015282217 | 3.4108e-05 | deg |
peri | 127.8520449878658 | 3.5437e-05 | deg |
M | 105.1436749914558 | 1.0565e-05 | deg |
tp | 2458561.152690956323 (2019-Mar-18.65269096) | 4.3058e-05 | TDB |
period | 1504.275281119634 4.12 | 7.4912e-06 2.051e-08 | d yr |
n | .2393178991361551 | 1.1918e-09 | deg/d |
Q | 3.087409909213941 | 1.025e-08 | au |
|
| | Orbit Determination Parameters
Additional Information
|
[ show covariance matrix ]
Physical Parameter Table
Parameter |
Symbol |
Value |
Units |
Sigma |
Reference |
Notes |
absolute magnitude |
H |
14.5 |
|
n/a |
MPO469024 |
|
diameter |
diameter |
3.624 |
km |
0.752 |
urn:nasa:pds:neowise_diameters_albedos::2.0[mainbelt] (http://adsabs.harvard.edu/abs/2016AJ....152...63N) |
|
geometric albedo |
albedo |
0.234 |
|
0.093 |
urn:nasa:pds:neowise_diameters_albedos::2.0[mainbelt] (http://adsabs.harvard.edu/abs/2016AJ....152...63N) |
|
|
101762 (1999 FO37) Discovered 1999-Mar-20 by LINEAR at Socorro |
Reference: 20051019/Numbers.arc | Last Updated: 2005-10-26 |
|
|